Regional Weather Roundup
Issued by NWS

Home | Current Version | Previous Version | Text Only | Print | Product List | Glossary Off
Versions: 1 2 3 4 5 6 7 8 9 10 11 12 13 14 15 16 17 18 19 20 21 22 23 24 25 26 27 28 29 30 31 32 33 34 35 36 37 38 39 40 41 42 43 44 45 46 47 48 49 50

797
ASUS43 KFSD 051402
RWRSD

WEATHER ROUNDUP FOR SOUTH DAKOTA
NATIONAL WEATHER SERVICE SIOUX FALLS SD
800 AM CST FRI FEB 05 2016

NOTE: "FAIR" INDICATES FEW OR NO CLOUDS BELOW 12,000 FEET WITH NO
SIGNIFICANT WEATHER AND/OR OBSTRUCTIONS TO VISIBILITY.


SDZ001>005-009-010-012>017-051500-
NORTHWEST AND NORTH CENTRAL SOUTH DAKOTA

CITY           SKY/WX    TMP DP  RH WIND       PRES   REMARKS
BUFFALO          N/A     27  21  78 NW13      30.11R WCI  16
FAITH            N/A     30  25  81 NW20G28   30.13R WCI  17
MOBRIDGE       FLURRIES  31  25  78 NW6       30.09R WCI  25
$$

SDZ012>016-024>037-041>051-057-063-072>074-051500-
SOUTHWEST AND SOUTH CENTRAL SOUTH DAKOTA

CITY           SKY/WX    TMP DP  RH WIND       PRES   REMARKS
RAPID CTY ARPT PTCLDY    29  25  85 N17       30.17R WCI  17
PIERRE         CLOUDY    29  24  82 W8        30.11R WCI  21
CUSTER         PTCLDY    24  13  62 NW12G18   30.10R WCI  13
PHILIP         PTCLDY    31  26  82 NW12      30.16R WCI  22
PINE RIDGE     CLOUDY    28  21  75 W7        30.19R WCI  21
WINNER         CLOUDY    34  25  69 W13       30.14R WCI  25
$$

SDZ004>011-016>023-039-040-051500-
NORTHEAST SOUTH DAKOTA

CITY           SKY/WX    TMP DP  RH WIND       PRES   REMARKS
ABERDEEN       CLOUDY    24  19  81 S8        30.14R WCI  15
WATERTOWN      CLOUDY    18  12  77 S14       30.13S WCI   4
BROOKINGS      CLOUDY    17  13  84 S13       30.16S WCI   4
SISSETON         N/A     25  17  72 CALM      30.15R
$$

SDZ017-020-022-023-036>040-048>070-051500-
SOUTHEAST SOUTH DAKOTA

CITY           SKY/WX    TMP DP  RH WIND       PRES   REMARKS
SIOUX FALLS    CLOUDY    19  13  77 S10       30.22S WCI   7
HURON          CLOUDY    20  15  81 S8        30.15R WCI  10
MITCHELL       CLOUDY    21  16  81 S9        30.17F WCI  11
YANKTON        CLOUDY    16  10  79 CALM      30.22F
$$

ABBREVIATIONS USED IN REMARKS
   TC - TEMPERATURE IN CELSIUS
  WCI - WIND CHILL INDEX
   HX - HEAT INDEX
  VSB - VISIBILITY





USA.gov is the U.S. government's official web portal to all federal, state and local government web resources and services.